Time,TemperatureF,DewpointF,PressureIn,WindDirection,WindDirectionDegrees,WindSpeedMPH,WindSpeedGustMPH,Humidity,HourlyPrecipIn,Conditions,Clouds,dailyrainin,SoftwareType,DateUTC
2013-07-13 00:04:00,55.1,43.0,29.94,NNE,15,0.0,1.0,63,0.00,,,0.00,weatherlink.com 1.10,2013-07-13 07:04:00,
2013-07-13 00:20:00,54.7,43.0,29.95,NNE,16,0.0,4.0,64,0.00,,,0.00,weatherlink.com 1.10,2013-07-13 07:20:00,
2013-07-13 00:35:00,54.3,43.0,29.95,North,355,1.0,4.0,65,0.00,,,0.00,weatherlink.com 1.10,2013-07-13 07:35:00,
2013-07-13 00:50:00,53.9,43.0,29.96,North,5,0.0,3.0,66,0.00,,,0.00,weatherlink.com 1.10,2013-07-13 07:50:00,
2013-07-13 01:05:00,53.9,42.0,29.96,North,360,0.0,1.0,65,0.00,,,0.00,weatherlink.com 1.10,2013-07-13 08:05:00,
2013-07-13 01:20:00,53.2,42.0,29.96,NNW,333,0.0,8.0,66,0.00,,,0.00,weatherlink.com 1.10,2013-07-13 08:20:00,
2013-07-13 01:35:00,52.8,42.0,29.97,NNW,331,0.0,1.0,66,0.00,,,0.00,weatherlink.com 1.10,2013-07-13 08:35:00,
2013-07-13 01:50:00,52.7,42.0,29.97,NNW,331,0.0,4.0,66,0.00,,,0.00,weatherlink.com 1.10,2013-07-13 08:50:00,
2013-07-13 02:06:00,51.1,41.0,29.97,NNW,331,0.0,0.0,69,0.00,,,0.00,weatherlink.com 1.10,2013-07-13 09:06:00,
2013-07-13 02:21:00,50.2,41.0,29.97,NNW,331,0.0,0.0,71,0.00,,,0.00,weatherlink.com 1.10,2013-07-13 09:21:00,
2013-07-13 02:36:00,48.3,40.0,29.98,NNW,331,0.0,0.0,74,0.00,,,0.00,weatherlink.com 1.10,2013-07-13 09:36:00,
2013-07-13 02:51:00,48.6,41.0,29.97,NNW,331,0.0,0.0,76,0.00,,,0.00,weatherlink.com 1.10,2013-07-13 09:51:00,
2013-07-13 03:06:00,48.4,40.0,29.98,NNW,331,0.0,0.0,73,0.00,,,0.00,weatherlink.com 1.10,2013-07-13 10:06:00,
2013-07-13 03:21:00,47.6,40.0,29.98,NNW,331,0.0,0.0,76,0.00,,,0.00,weatherlink.com 1.10,2013-07-13 10:21:00,
2013-07-13 03:37:00,46.7,40.0,29.98,NNW,331,0.0,0.0,78,0.00,,,0.00,weatherlink.com 1.10,2013-07-13 10:37:00,
2013-07-13 03:52:00,46.9,40.0,29.98,NNW,331,0.0,0.0,78,0.00,,,0.00,weatherlink.com 1.10,2013-07-13 10:52:00,
2013-07-13 04:07:00,46.7,40.0,29.98,NNW,331,0.0,0.0,77,0.00,,,0.00,weatherlink.com 1.10,2013-07-13 11:07:00,
2013-07-13 04:22:00,45.0,40.0,29.98,NNW,331,0.0,0.0,81,0.00,,,0.00,weatherlink.com 1.10,2013-07-13 11:22:00,
2013-07-13 04:37:00,44.6,39.0,29.98,NNW,331,0.0,0.0,81,0.00,,,0.00,weatherlink.com 1.10,2013-07-13 11:37:00,
2013-07-13 04:52:00,44.7,40.0,29.98,NNW,331,0.0,0.0,82,0.00,,,0.00,weatherlink.com 1.10,2013-07-13 11:52:00,
2013-07-13 05:09:00,46.0,40.0,29.98,NNW,331,0.0,0.0,80,0.00,,,0.00,weatherlink.com 1.10,2013-07-13 12:09:00,
2013-07-13 05:24:00,45.8,40.0,29.99,NNW,331,0.0,0.0,79,0.00,,,0.00,weatherlink.com 1.10,2013-07-13 12:24:00,
2013-07-13 05:39:00,43.2,38.0,30.00,NNW,331,0.0,0.0,81,0.00,,,0.00,weatherlink.com 1.10,2013-07-13 12:39:00,
2013-07-13 05:54:00,43.1,38.0,30.00,NNW,331,0.0,0.0,83,0.00,,,0.00,weatherlink.com 1.10,2013-07-13 12:54:00,
2013-07-13 06:09:00,44.0,40.0,30.00,NNW,331,0.0,1.0,84,0.00,,,0.00,weatherlink.com 1.10,2013-07-13 13:09:00,
2013-07-13 06:24:00,45.6,40.0,30.00,NNW,332,0.0,0.0,82,0.00,,,0.00,weatherlink.com 1.10,2013-07-13 13:24:00,
2013-07-13 06:39:00,46.7,41.0,30.01,NNW,332,0.0,0.0,79,0.00,,,0.00,weatherlink.com 1.10,2013-07-13 13:39:00,
2013-07-13 06:54:00,47.6,41.0,30.02,NNW,331,0.0,0.0,78,0.00,,,0.00,weatherlink.com 1.10,2013-07-13 13:54:00,
2013-07-13 07:09:00,48.9,42.0,30.02,NNW,331,0.0,0.0,77,0.00,,,0.00,weatherlink.com 1.10,2013-07-13 14:09:00,
2013-07-13 07:24:00,50.6,43.0,30.03,NW,310,0.0,2.0,76,0.00,,,0.00,weatherlink.com 1.10,2013-07-13 14:24:00,
2013-07-13 07:40:00,52.3,43.0,30.03,WSW,244,0.0,3.0,70,0.00,,,0.00,weatherlink.com 1.10,2013-07-13 14:40:00,
2013-07-13 07:55:00,53.9,43.0,30.04,WSW,241,0.0,0.0,68,0.00,,,0.00,weatherlink.com 1.10,2013-07-13 14:55:00,
2013-07-13 08:10:00,55.6,43.0,30.04,WSW,241,0.0,0.0,63,0.00,,,0.00,weatherlink.com 1.10,2013-07-13 15:10:00,
2013-07-13 08:25:00,56.7,44.0,30.04,WSW,241,0.0,3.0,62,0.00,,,0.00,weatherlink.com 1.10,2013-07-13 15:25:00,
2013-07-13 08:40:00,57.7,44.0,30.04,WSW,240,0.0,4.0,60,0.00,,,0.00,weatherlink.com 1.10,2013-07-13 15:40:00,
2013-07-13 08:55:00,59.0,44.0,30.04,SW,229,0.0,3.0,57,0.00,,,0.00,weatherlink.com 1.10,2013-07-13 15:55:00,
2013-07-13 09:10:00,59.8,43.0,30.04,SW,227,0.0,4.0,54,0.00,,,0.00,weatherlink.com 1.10,2013-07-13 16:10:00,
2013-07-13 09:25:00,59.9,43.0,30.04,West,272,0.0,4.0,54,0.00,,,0.00,weatherlink.com 1.10,2013-07-13 16:25:00,
2013-07-13 09:41:00,61.8,43.0,30.03,SSW,202,0.0,3.0,50,0.00,,,0.00,weatherlink.com 1.10,2013-07-13 16:41:00,
2013-07-13 09:56:00,63.1,42.0,30.03,SSW,210,0.0,1.0,47,0.00,,,0.00,weatherlink.com 1.10,2013-07-13 16:56:00,
2013-07-13 10:11:00,63.6,43.0,30.02,NNE,22,0.0,5.0,48,0.00,,,0.00,weatherlink.com 1.10,2013-07-13 17:11:00,
2013-07-13 10:26:00,65.7,42.0,30.03,NNE,23,0.0,4.0,43,0.00,,,0.00,weatherlink.com 1.10,2013-07-13 17:26:00,
2013-07-13 10:41:00,66.3,41.0,30.02,NNE,15,0.0,1.0,40,0.00,,,0.00,weatherlink.com 1.10,2013-07-13 17:41:00,
2013-07-13 10:56:00,67.1,41.0,30.02,NNE,24,0.0,6.0,38,0.00,,,0.00,weatherlink.com 1.10,2013-07-13 17:56:00,
2013-07-13 11:12:00,68.5,41.0,30.02,NNE,12,0.0,9.0,37,0.00,,,0.00,weatherlink.com 1.10,2013-07-13 18:12:00,
2013-07-13 11:27:00,68.6,41.0,30.02,North,5,0.0,4.0,37,0.00,,,0.00,weatherlink.com 1.10,2013-07-13 18:27:00,
2013-07-13 11:42:00,68.9,41.0,30.02,WSW,239,0.0,3.0,36,0.00,,,0.00,weatherlink.com 1.10,2013-07-13 18:42:00,
2013-07-13 11:57:00,72.4,41.0,30.01,NNE,18,0.0,6.0,32,0.00,,,0.00,weatherlink.com 1.10,2013-07-13 18:57:00,
2013-07-13 12:12:00,71.9,41.0,30.01,NW,325,0.0,5.0,33,0.00,,,0.00,weatherlink.com 1.10,2013-07-13 19:12:00,
2013-07-13 12:29:00,73.7,40.0,30.00,NNE,22,0.0,4.0,30,0.00,,,0.00,weatherlink.com 1.10,2013-07-13 19:29:00,
2013-07-13 12:44:00,74.9,40.0,30.00,NNW,331,0.0,5.0,28,0.00,,,0.00,weatherlink.com 1.10,2013-07-13 19:44:00,
2013-07-13 12:59:00,74.7,38.0,29.99,NNE,29,0.0,10.0,26,0.00,,,0.00,weatherlink.com 1.10,2013-07-13 19:59:00,
2013-07-13 13:14:00,76.1,38.0,29.99,NE,37,1.0,8.0,25,0.00,,,0.00,weatherlink.com 1.10,2013-07-13 20:14:00,
2013-07-13 13:29:00,78.3,39.0,29.99,NE,37,0.0,6.0,24,0.00,,,0.00,weatherlink.com 1.10,2013-07-13 20:29:00,
2013-07-13 13:44:00,78.1,36.0,29.98,WNW,301,2.0,6.0,22,0.00,,,0.00,weatherlink.com 1.10,2013-07-13 20:44:00,
2013-07-13 13:59:00,78.9,36.0,29.98,NW,326,1.0,8.0,21,0.00,,,0.00,weatherlink.com 1.10,2013-07-13 20:59:00,
2013-07-13 14:14:00,79.3,36.0,29.98,North,360,3.0,5.0,21,0.00,,,0.00,weatherlink.com 1.10,2013-07-13 21:14:00,
2013-07-13 14:29:00,81.2,34.0,29.97,NNE,30,0.0,8.0,18,0.00,,,0.00,weatherlink.com 1.10,2013-07-13 21:29:00,
2013-07-13 14:44:00,82.1,36.0,29.96,NNW,334,2.0,5.0,19,0.00,,,0.00,weatherlink.com 1.10,2013-07-13 21:44:00,
2013-07-13 14:59:00,81.9,34.0,29.96,NNE,31,0.0,2.0,18,0.00,,,0.00,weatherlink.com 1.10,2013-07-13 21:59:00,
2013-07-13 15:14:00,80.4,34.0,29.96,NW,306,3.0,8.0,19,0.00,,,0.00,weatherlink.com 1.10,2013-07-13 22:14:00,
2013-07-13 15:29:00,79.4,35.0,29.95,West,279,3.0,9.0,20,0.00,,,0.00,weatherlink.com 1.10,2013-07-13 22:29:00,
2013-07-13 15:45:00,81.6,34.0,29.95,NNW,346,0.0,5.0,18,0.00,,,0.00,weatherlink.com 1.10,2013-07-13 22:45:00,
2013-07-13 16:00:00,82.4,37.0,29.94,North,5,0.0,8.0,20,0.00,,,0.00,weatherlink.com 1.10,2013-07-13 23:00:00,
2013-07-13 16:15:00,83.6,37.0,29.94,NNE,23,5.0,6.0,19,0.00,,,0.00,weatherlink.com 1.10,2013-07-13 23:15:00,
2013-07-13 16:30:00,84.1,36.0,29.93,NNE,17,0.0,10.0,18,0.00,,,0.00,weatherlink.com 1.10,2013-07-13 23:30:00,
2013-07-13 16:45:00,85.6,36.0,29.93,North,11,4.0,6.0,17,0.00,,,0.00,weatherlink.com 1.10,2013-07-13 23:45:00,
2013-07-13 17:00:00,83.3,36.0,29.92,North,5,5.0,6.0,18,0.00,,,0.00,weatherlink.com 1.10,2013-07-14 00:00:00,
2013-07-13 17:15:00,85.6,37.0,29.92,NNE,13,1.0,7.0,18,0.00,,,0.00,weatherlink.com 1.10,2013-07-14 00:15:00,
2013-07-13 17:31:00,85.6,37.0,29.91,NNE,19,2.0,7.0,18,0.00,,,0.00,weatherlink.com 1.10,2013-07-14 00:31:00,
2013-07-13 17:46:00,85.6,36.0,29.91,NNE,19,9.0,14.0,17,0.00,,,0.00,weatherlink.com 1.10,2013-07-14 00:46:00,
2013-07-13 18:01:00,84.8,35.0,29.91,NNE,24,4.0,14.0,17,0.00,,,0.00,weatherlink.com 1.10,2013-07-14 01:01:00,
2013-07-13 18:16:00,84.0,38.0,29.91,NNE,19,3.0,12.0,19,0.00,,,0.00,weatherlink.com 1.10,2013-07-14 01:16:00,
2013-07-13 18:31:00,82.0,37.0,29.91,NNE,18,0.0,8.0,20,0.00,,,0.00,weatherlink.com 1.10,2013-07-14 01:31:00,
2013-07-13 18:46:00,80.9,39.0,29.91,North,5,1.0,7.0,22,0.00,,,0.00,weatherlink.com 1.10,2013-07-14 01:46:00,
2013-07-13 19:01:00,80.1,38.0,29.91,NNE,15,6.0,7.0,22,0.00,,,0.00,weatherlink.com 1.10,2013-07-14 02:01:00,
2013-07-13 19:17:00,80.6,39.0,29.91,NNE,19,3.0,10.0,23,0.00,,,0.00,weatherlink.com 1.10,2013-07-14 02:17:00,
2013-07-13 19:32:00,79.8,40.0,29.91,NNE,14,3.0,8.0,24,0.00,,,0.00,weatherlink.com 1.10,2013-07-14 02:32:00,
2013-07-13 19:47:00,78.4,39.0,29.91,NNW,346,3.0,11.0,24,0.00,,,0.00,weatherlink.com 1.10,2013-07-14 02:47:00,
2013-07-13 20:02:00,76.7,38.0,29.91,NNE,24,5.0,8.0,25,0.00,,,0.00,weatherlink.com 1.10,2013-07-14 03:02:00,
2013-07-13 20:17:00,74.0,37.0,29.91,NNE,15,2.0,9.0,26,0.00,,,0.00,weatherlink.com 1.10,2013-07-14 03:17:00,
2013-07-13 20:32:00,72.2,37.0,29.91,NNE,22,4.0,7.0,28,0.00,,,0.00,weatherlink.com 1.10,2013-07-14 03:32:00,
2013-07-13 20:47:00,70.3,37.0,29.92,NNE,23,0.0,4.0,30,0.00,,,0.00,weatherlink.com 1.10,2013-07-14 03:47:00,
2013-07-13 21:02:00,67.9,37.0,29.92,NNE,22,0.0,4.0,32,0.00,,,0.00,weatherlink.com 1.10,2013-07-14 04:02:00,
2013-07-13 21:19:00,65.6,36.0,29.93,NNE,29,0.0,0.0,34,0.00,,,0.00,weatherlink.com 1.10,2013-07-14 04:19:00,
2013-07-13 21:33:00,64.9,37.0,29.93,NNE,30,5.0,7.0,36,0.00,,,0.00,weatherlink.com 1.10,2013-07-14 04:33:00,
2013-07-13 21:48:00,64.4,35.0,29.94,NNE,27,2.0,5.0,34,0.00,,,0.00,weatherlink.com 1.10,2013-07-14 04:48:00,
2013-07-13 22:04:00,63.1,36.0,29.95,NNE,27,0.0,0.0,36,0.00,,,0.00,weatherlink.com 1.10,2013-07-14 05:04:00,
2013-07-13 22:19:00,62.0,37.0,29.95,NNE,26,0.0,0.0,39,0.00,,,0.00,weatherlink.com 1.10,2013-07-14 05:19:00,
2013-07-13 22:35:00,60.5,37.0,29.95,NNE,26,0.0,0.0,42,0.00,,,0.00,weatherlink.com 1.10,2013-07-14 05:35:00,
2013-07-13 22:49:00,58.6,37.0,29.96,NNE,27,0.0,0.0,45,0.00,,,0.00,weatherlink.com 1.10,2013-07-14 05:49:00,
2013-07-13 23:05:00,57.2,37.0,29.95,NE,34,0.0,0.0,47,0.00,,,0.00,weatherlink.com 1.10,2013-07-14 06:05:00,
2013-07-13 23:19:00,57.8,37.0,29.96,NNE,33,0.0,0.0,46,0.00,,,0.00,weatherlink.com 1.10,2013-07-14 06:19:00,
2013-07-13 23:34:00,58.3,35.0,29.96,NE,34,0.0,0.0,42,0.00,,,0.00,weatherlink.com 1.10,2013-07-14 06:34:00,
2013-07-13 23:49:00,59.3,34.0,29.96,NE,34,0.0,0.0,39,0.00,,,0.00,weatherlink.com 1.10,2013-07-14 06:49:00,